DELTA 1 DEB, 3126

Orbit data source: Space-Track

DELTA 1 DEB, 3126 is space debris in LEO originally from a launch on Thu, 11 Jan 1968 UTC launched from the Air Force Western Test Range (AFWTR). Debris objects in space refer to the collection of defunct objects orbiting the Earth. Examples of debris include non-operational satellites, rocket bodies, and fragments generated from explosions, collisions, or faulty payload assembly.

Loading next visibility...
Identifier
3126, 1968-002C
Orbit
LEO
Last TLE update
1 day ago
Origin
Manufacturer
Unknown
Mission
Spacecraft
Bus & Motor
Unknown
Mass
Unknown
Launch date (UTC)
1968-01-11 (57 years ago)
Launch vehicle
Unknown
Launch site
Air Force Western Test Range (AFWTR)
Object type
Payload
Rocket body
Debris
Shape & HBR
Unknown
Radar Cross Section
Small (<0.1 m²)

Expand to show TLE details & history

TLE from 1 day ago
0 DELTA 1 DEB
1 03126U 68002C   25190.71779654 -.00000047  00000-0  10310-3 0  9991
2 03126 106.0727 350.8554 0321929 344.3891  27.5745 12.82446453690380
Epoch: 2025-07-09T17:13Z
TLE epoch observation values (Epoch: 2025-07-09T17:13:37.621Z)
Latitude
13.1596°
Longitude
160.71157°
Altitude
1,115.078 km
Speed
7.399 km/s
True Right ascension
23h 08m 03s
True Declination
13° 05' 14"
Sunlit
Object was in daylight at epoch
Visualization orbit readout
Latitude
52.91998°
Longitude
8.65863°
Altitude
1,531.294 km
Speed
7.016 km/s
Apparent Right ascension
18h 52m 48s
Apparent Declination
60° 44' 41"
Sunlit
Object is in daylight
Visualization observer readout
Local Sidereal Time
12:01:09
Azimuth
32.797° NE
Elevation
28.428°
Doppler factor
1
Orbital elements
Apogee altitude
1,577.581 km
Perigee altitude
1,081.322 km
Semi-major axis
7,707.589 km
Eccentricity
0.03219
Inclination
106.0727°
RAAN
350.8554°
Arg. of periapsis
344.3891°
True anomaly
Unknown
Mean anomaly
27.5745°
Eccentric anomaly
Unknown
Mean motion
3.20749 °/min
Orbital period
112.24 mins
BSTAR
0.0001031
Loading maneuver chart data...
Loading SW <> Apogee altitude chart data...
Loading historical data...
Loading historical data...
Loading historical data...
Loading historical data...
Loading historical data...
Loading historical data...
Loading historical data...

DELTA 1 DEB Visibility forecast

Observer location: undefined°, undefined°

Span
Click to sort rows by Start time (UTC) header in descending order
Start Az.
Max El. time (UTC)
Max El. Az.
Max El.
End time (UTC)
End Az.
14 mins2025-07-10 23:45:02.092Z32.943° NE2025-07-10 23:50:02.092Z104.134° ESE43.537°2025-07-10 23:59:02.092Z195.498° SSW
13 mins2025-07-11 01:33:02.092Z1.682° NNE2025-07-11 01:39:02.092Z309.662° NW27.902°2025-07-11 01:46:02.092Z253.209° W
9 mins2025-07-11 08:40:02.092Z88.182° E2025-07-11 08:44:02.092Z46.052° ENE22.348°2025-07-11 08:49:02.092Z1.074° NNE
12 mins2025-07-11 10:28:02.092Z165.3° S2025-07-11 10:33:02.092Z266.088° W43.947°2025-07-11 10:40:02.092Z333.884° NNW
10 mins2025-07-11 22:15:02.092Z62.231° ENE2025-07-11 22:20:02.092Z101.312° ESE18.933°2025-07-11 22:25:02.092Z137.945° SSE
|